period_start,C,m1,H,J0,J1,J2,J3,J4,J5,JA,JB,JC,JD,JJ,JK,JN,#
2016-03-22 00:02:45,0.11,4.48,0.00,17.82,22.64,25.93,14.98,52.55,1017.21,2052.98,2140.03,2152.03,2431.37,600.12,607.14,29.98,0000 0000 0000 0000 000000
2016-03-22 00:07:46,0.13,4.49,0.00,17.83,22.62,25.91,14.88,52.82,1017.13,2052.99,2138.43,2150.99,2430.17,599.94,606.86,30.03,0000 0000 0000 0000 000000
2016-03-22 00:12:48,0.13,4.49,0.00,17.84,22.59,25.89,14.93,52.90,1017.14,2052.99,2136.80,2149.95,2428.91,599.98,606.89,30.08,0000 0000 0000 0000 000000
2016-03-22 00:17:49,0.12,4.50,0.00,17.82,22.57,25.87,14.97,52.83,1017.13,2052.99,2135.22,2148.92,2427.78,599.94,606.87,30.14,0000 0000 0000 0000 000000
2016-03-22 00:22:50,0.17,4.51,0.00,17.81,22.55,25.85,14.87,52.62,1017.13,2053.03,2133.30,2147.77,2426.38,599.84,606.81,30.19,0000 0000 0000 0000 000000
2016-03-22 00:27:52,0.16,4.51,0.00,17.81,22.52,25.84,14.89,52.28,1017.27,2053.16,2131.61,2146.69,2425.20,599.96,607.00,30.24,0000 0000 0000 0000 000000
2016-03-22 00:32:53,0.17,4.52,0.00,17.82,22.51,25.82,14.87,52.06,1017.20,2053.44,2129.91,2145.54,2423.81,599.88,606.88,30.29,0000 0000 0000 0000 000000
2016-03-22 00:37:54,0.18,4.53,0.00,17.84,22.49,25.79,14.95,52.26,1017.10,2053.75,2128.28,2144.42,2422.53,600.16,607.06,30.34,0000 0000 0000 0000 000000
2016-03-22 00:42:56,0.11,4.54,0.00,17.85,22.47,25.78,14.89,52.14,1016.78,2053.93,2126.91,2143.43,2421.39,599.98,606.71,30.39,0000 0000 0000 0000 000000
2016-03-22 00:47:57,0.13,4.55,0.00,17.84,22.45,25.77,14.90,52.33,1016.63,2053.98,2125.62,2142.45,2420.31,600.06,606.66,30.44,0000 0000 0000 0000 000000
2016-03-22 00:52:58,0.11,4.55,0.00,17.86,22.44,25.75,14.92,52.17,1016.62,2053.99,2124.33,2141.53,2419.27,600.10,606.57,30.49,0000 0000 0000 0000 000000
2016-03-22 00:57:59,0.10,4.56,0.00,17.86,22.42,25.75,14.91,52.23,1016.62,2053.98,2123.02,2140.59,2418.16,600.34,606.88,30.54,0000 0000 0000 0000 000000
2016-03-22 01:03:01,0.10,4.56,0.00,17.87,22.41,25.73,14.90,52.40,1016.62,2053.99,2121.75,2139.81,2417.20,600.07,606.62,30.59,0000 0000 0000 0000 000000
2016-03-22 01:08:02,0.10,4.57,0.00,17.89,22.39,25.73,14.87,52.35,1016.62,2053.99,2120.46,2138.91,2416.19,599.88,606.32,30.64,0000 0000 0000 0000 000000
2016-03-22 01:13:04,0.10,4.57,0.00,17.89,22.39,25.71,14.95,52.51,1016.61,2053.99,2119.31,2138.05,2415.23,599.91,606.17,30.69,0000 0000 0000 0000 000000
2016-03-22 01:18:05,0.10,4.58,0.00,17.91,22.37,25.71,14.91,52.34,1016.58,2054.00,2118.32,2137.25,2414.33,600.17,606.59,30.74,0000 0000 0000 0000 000000
2016-03-22 01:23:06,0.09,4.58,0.00,17.90,22.37,25.71,14.83,52.25,1016.58,2054.02,2117.35,2136.60,2413.52,599.87,606.29,30.79,0000 0000 0000 0000 000000
2016-03-22 01:28:07,0.08,4.59,0.00,17.91,22.36,25.73,14.80,52.13,1016.59,2054.04,2116.12,2135.84,2412.59,599.74,606.21,30.84,0000 0000 0000 0000 000000
2016-03-22 01:33:08,0.09,4.59,0.00,17.91,22.34,25.69,14.94,52.04,1016.52,2054.05,2115.03,2135.02,2411.70,599.97,606.35,30.89,0000 0000 0000 0000 000000
2016-03-22 01:38:09,0.11,4.60,0.00,17.91,22.34,25.69,14.85,51.99,1016.33,2054.06,2113.89,2134.15,2410.72,600.22,606.52,30.94,0000 0000 0000 0000 000000
2016-03-22 01:43:11,0.12,4.60,0.00,17.92,22.34,25.67,14.86,52.12,1016.21,2054.08,2112.65,2133.33,2409.66,600.02,606.19,30.99,0000 0000 0000 0000 000000
2016-03-22 01:48:12,0.11,4.61,0.00,17.92,22.34,25.69,14.95,52.23,1016.13,2054.14,2111.40,2132.48,2408.70,600.22,606.25,31.04,0000 0000 0000 0000 000000
2016-03-22 01:53:13,0.13,4.62,0.00,17.91,22.34,25.69,14.88,52.29,1016.13,2054.51,2110.42,2131.77,2407.85,600.01,606.14,31.09,0000 0000 0000 0000 000000
2016-03-22 01:58:14,0.09,4.62,0.00,17.94,22.33,25.67,14.89,52.35,1016.11,2054.58,2109.25,2130.96,2406.86,600.25,606.26,31.14,0000 0000 0000 0000 000000
2016-03-22 02:03:16,0.13,4.63,0.00,17.95,22.32,25.68,14.88,52.37,1016.11,2054.83,2108.14,2130.06,2405.86,599.85,605.91,31.19,0000 0000 0000 0000 000000
2016-03-22 02:08:17,0.13,4.64,0.00,17.95,22.32,25.66,14.84,52.34,1016.10,2054.90,2106.85,2129.15,2404.73,599.85,605.98,31.24,0000 0000 0000 0000 000000
2016-03-22 02:13:19,0.10,4.64,0.00,17.95,22.32,25.67,14.79,52.22,1016.09,2054.90,2105.76,2128.19,2403.70,599.80,605.88,31.29,0000 0000 0000 0000 000000
2016-03-22 02:18:20,0.07,4.65,0.00,17.95,22.32,25.67,14.84,52.26,1015.91,2054.68,2104.67,2127.21,2402.67,599.63,605.55,31.34,0000 0000 0000 0000 000000
2016-03-22 02:23:21,0.13,4.65,0.00,17.96,22.32,25.66,14.91,52.30,1015.92,2054.72,2103.38,2126.26,2401.58,600.30,606.26,31.39,0000 0000 0000 0000 000000
2016-03-22 02:28:23,0.11,4.66,0.00,17.98,22.32,25.70,14.95,52.40,1016.07,2054.66,2102.13,2125.34,2400.48,600.10,606.10,31.44,0000 0000 0000 0000 000000
2016-03-22 02:33:24,0.10,4.66,0.00,17.97,22.32,25.69,14.88,52.42,1016.12,2054.62,2100.91,2124.54,2399.57,599.96,605.90,31.49,0000 0000 0000 0000 000000
2016-03-22 02:38:25,0.12,4.67,0.00,17.99,22.32,25.68,14.90,52.34,1016.13,2054.73,2099.73,2123.74,2398.51,599.96,606.07,31.54,0000 0000 0000 0000 000000
2016-03-22 02:43:26,0.09,4.67,0.00,17.99,22.32,25.69,14.86,52.32,1016.00,2054.69,2098.51,2122.89,2397.46,599.95,605.82,31.59,0000 0000 0000 0000 000000
2016-03-22 02:48:27,0.11,4.68,0.00,17.99,22.32,25.68,14.90,52.43,1015.73,2054.79,2097.34,2121.94,2396.54,599.98,605.74,31.64,0000 0000 0000 0000 000000
2016-03-22 02:53:29,0.13,4.69,0.00,18.01,22.32,25.69,14.83,52.50,1015.79,2054.81,2095.84,2120.97,2395.33,600.08,605.83,31.69,0000 0000 0000 0000 000000
2016-03-22 02:58:30,0.11,4.69,0.00,18.02,22.32,25.72,14.84,52.60,1016.04,2054.83,2094.39,2120.00,2394.16,599.77,605.66,31.74,0000 0000 0000 0000 000000
2016-03-22 03:03:32,0.12,4.70,0.00,18.03,22.32,25.72,14.85,52.51,1016.12,2054.89,2093.13,2119.07,2393.09,599.73,605.70,31.79,0000 0000 0000 0000 000000
2016-03-22 03:08:33,0.14,4.71,0.00,18.02,22.31,25.70,14.89,52.59,1016.14,2054.94,2091.71,2118.06,2391.88,599.87,605.96,31.84,0000 0000 0000 0000 000000
2016-03-22 03:13:35,0.12,4.71,0.00,18.02,22.30,25.71,14.89,52.48,1016.46,2054.98,2090.48,2117.14,2390.80,600.21,606.37,31.89,0000 0000 0000 0000 000000
2016-03-22 03:18:36,0.12,4.72,0.00,18.02,22.30,25.72,14.95,52.69,1016.61,2054.95,2089.09,2116.20,2389.63,600.31,606.54,31.94,0000 0000 0000 0000 000000
2016-03-22 03:23:37,0.13,4.73,0.00,18.02,22.30,25.71,14.84,52.53,1016.62,2054.93,2087.47,2115.13,2388.40,599.70,605.88,31.99,0000 0000 0000 0000 000000
2016-03-22 03:28:39,0.10,4.73,0.00,18.04,22.29,25.70,14.86,52.52,1016.63,2054.94,2086.24,2114.18,2387.31,600.21,606.40,32.04,0000 0000 0000 0000 000000
2016-03-22 03:33:40,0.12,4.74,0.00,18.05,22.29,25.68,14.84,52.63,1016.63,2054.96,2084.99,2113.25,2386.28,599.81,606.00,32.09,0000 0000 0000 0000 000000
2016-03-22 03:38:41,0.12,4.74,0.00,18.06,22.30,25.71,14.87,52.58,1016.82,2054.92,2083.72,2112.27,2385.14,600.05,606.32,32.14,0000 0000 0000 0000 000000
2016-03-22 03:43:43,0.11,4.75,0.00,18.07,22.30,25.69,14.89,52.48,1017.09,2054.92,2082.50,2111.38,2384.07,600.29,606.66,32.19,0000 0000 0000 0000 000000
2016-03-22 03:48:44,0.10,4.75,0.00,18.10,22.30,25.70,14.87,52.43,1017.10,2054.89,2081.16,2110.59,2382.98,599.84,606.20,32.24,0000 0000 0000 0000 000000
2016-03-22 03:53:45,0.10,4.76,0.00,18.13,22.32,25.69,14.85,52.51,1017.11,2054.82,2079.86,2109.71,2381.88,599.96,606.30,32.29,0000 0000 0000 0000 000000
2016-03-22 03:58:47,0.12,4.76,0.00,18.14,22.32,25.73,14.91,52.47,1017.12,2054.74,2078.56,2108.80,2380.78,600.22,606.50,32.34,0000 0000 0000 0000 000000
2016-03-22 04:03:48,0.10,4.77,0.00,18.17,22.32,25.71,14.88,52.55,1017.15,2054.83,2077.25,2107.91,2379.77,600.06,606.26,32.39,0000 0000 0000 0000 000000
2016-03-22 04:08:49,0.10,4.78,0.00,18.21,22.32,25.73,14.82,52.52,1017.14,2054.80,2076.06,2107.03,2378.73,599.89,606.04,32.45,0000 0000 0000 0000 000000
2016-03-22 04:13:51,0.06,4.78,0.00,18.24,22.34,25.73,14.83,52.54,1017.15,2054.53,2074.95,2106.12,2377.74,599.97,606.02,32.50,0000 0000 0000 0000 000000
2016-03-22 04:18:52,0.08,4.78,0.00,18.26,22.35,25.70,14.88,52.53,1017.14,2054.16,2073.79,2105.27,2376.78,600.26,606.25,32.55,0000 0000 0000 0000 000000
2016-03-22 04:23:53,0.10,4.79,0.00,18.29,22.37,25.73,14.87,52.51,1017.12,2054.13,2072.71,2104.50,2375.82,599.88,605.82,32.60,0000 0000 0000 0000 000000
2016-03-22 04:28:54,0.07,4.79,0.00,18.29,22.37,25.76,14.84,52.73,1017.17,2054.03,2071.53,2103.76,2374.91,600.14,606.07,32.65,0000 0000 0000 0000 000000
2016-03-22 04:33:56,0.08,4.80,0.00,18.30,22.39,25.79,14.82,52.53,1017.32,2054.03,2070.67,2103.01,2374.04,599.81,605.87,32.70,0000 0000 0000 0000 000000
2016-03-22 04:38:57,0.09,4.80,0.00,18.34,22.41,25.79,14.93,52.50,1017.57,2054.02,2069.78,2102.26,2373.23,600.03,606.13,32.75,0000 0000 0000 0000 000000
2016-03-22 04:43:59,0.07,4.81,0.00,18.35,22.42,25.83,14.84,52.28,1017.59,2054.01,2068.82,2101.70,2372.45,599.97,606.14,32.80,0000 0000 0000 0000 000000
2016-03-22 04:49:00,0.05,4.81,0.00,18.37,22.44,25.83,14.83,52.33,1017.59,2054.00,2068.02,2101.02,2371.88,600.05,606.13,32.85,0000 0000 0000 0000 000000
2016-03-22 04:54:01,0.09,4.81,0.00,18.39,22.46,25.85,14.87,52.32,1017.60,2054.00,2067.23,2100.41,2371.08,600.16,606.21,32.90,0000 0000 0000 0000 000000
2016-03-22 04:59:03,0.06,4.82,0.00,18.42,22.48,25.85,14.77,52.19,1017.63,2053.98,2066.47,2099.94,2370.30,599.54,605.56,32.95,0000 0000 0000 0000 000000
2016-03-22 05:04:04,0.08,4.82,0.00,18.44,22.49,25.87,14.80,52.48,1017.63,2053.98,2065.73,2099.12,2369.71,599.52,605.55,33.00,0000 0000 0000 0000 000000
2016-03-22 05:09:06,0.07,4.83,0.00,18.45,22.52,25.90,14.91,52.52,1017.75,2053.98,2064.86,2098.64,2368.97,599.92,605.91,33.05,0000 0000 0000 0000 000000
2016-03-22 05:14:07,0.06,4.83,0.00,18.47,22.54,25.93,14.84,52.50,1018.03,2053.93,2064.08,2098.01,2368.20,599.77,605.96,33.10,0000 0000 0000 0000 000000
2016-03-22 05:19:08,0.05,4.83,0.00,18.49,22.56,25.94,14.85,52.44,1018.08,2053.79,2063.41,2097.56,2367.73,600.20,606.35,33.15,0000 0000 0000 0000 000000
2016-03-22 05:24:10,0.00,4.83,0.00,18.51,22.59,25.96,14.87,52.39,1018.09,2053.41,2062.79,2097.01,2367.03,600.02,606.11,33.20,0000 0000 0000 0000 000000
2016-03-22 05:29:11,0.05,4.83,0.00,18.54,22.61,25.99,14.87,52.39,1018.13,2053.14,2062.06,2096.46,2366.56,599.93,605.97,33.25,0000 0000 0000 0000 000000
2016-03-22 05:34:12,0.04,4.84,0.00,18.58,22.63,26.02,14.86,52.52,1018.16,2053.03,2061.32,2096.00,2365.98,600.04,606.00,33.30,0000 0000 0000 0000 000000
2016-03-22 05:39:13,0.09,4.84,0.00,18.60,22.65,26.02,14.89,52.53,1018.14,2053.00,2060.64,2095.39,2365.24,600.27,606.08,33.36,0000 0000 0000 0000 000000
2016-03-22 05:44:15,0.07,4.84,0.00,18.62,22.68,26.05,14.80,52.51,1018.41,2053.00,2059.69,2094.83,2364.48,599.80,605.78,33.41,0000 0000 0000 0000 000000
2016-03-22 05:49:16,0.05,4.85,0.00,18.63,22.69,26.09,14.92,52.62,1018.56,2053.00,2059.03,2094.08,2363.99,600.21,606.43,33.46,0000 0000 0000 0000 000000
2016-03-22 05:54:17,0.04,4.85,0.00,18.68,22.72,26.10,14.89,52.58,1018.60,2052.99,2058.67,2093.90,2363.34,600.04,606.01,33.51,0000 0000 0000 0000 000000
2016-03-22 05:59:18,0.08,4.85,0.00,18.71,22.74,26.14,14.86,52.36,1018.91,2052.97,2057.82,2093.13,2362.70,599.96,606.20,33.56,0000 0000 0000 0000 000000
2016-03-22 06:04:20,0.06,4.86,0.00,18.72,22.76,26.15,14.85,52.28,1019.05,2052.94,2057.02,2092.66,2361.99,599.75,605.98,33.61,0000 0000 0000 0000 000000
2016-03-22 06:09:21,0.03,4.86,0.00,18.74,22.78,26.18,14.87,52.23,1019.15,2052.71,2056.22,2092.02,2361.21,600.11,606.34,33.66,0000 0000 0000 0000 000000
2016-03-22 06:14:22,0.04,4.86,0.00,18.75,22.80,26.21,14.83,52.25,1019.51,2052.36,2055.65,2091.59,2360.72,599.43,605.89,33.71,0000 0000 0000 0000 000000
2016-03-22 06:19:23,0.02,4.86,0.00,18.78,22.82,26.24,14.88,52.24,1019.55,2052.07,2054.99,2090.99,2360.03,599.66,606.12,33.76,0000 0000 0000 0000 000000
2016-03-22 06:24:24,0.09,4.87,0.00,18.79,22.84,26.24,14.85,52.20,1019.67,2052.04,2054.18,2090.43,2359.40,599.59,605.98,33.81,0000 0000 0000 0000 000000
2016-03-22 06:29:25,0.01,4.87,0.00,18.81,22.87,26.25,14.91,52.17,1019.94,2052.01,2053.86,2090.00,2358.96,599.99,606.47,33.86,0000 0000 0000 0000 000000
2016-03-22 06:34:26,0.09,4.87,0.00,18.83,22.88,26.29,14.86,52.17,1020.00,2052.00,2053.04,2089.38,2358.13,599.45,606.02,33.91,0000 0000 0000 0000 000000
2016-03-22 06:39:28,0.06,4.88,0.00,18.84,22.91,26.33,14.84,52.17,1020.03,2052.00,2052.21,2088.97,2357.52,599.83,606.35,33.96,0000 0000 0000 0000 000000
2016-03-22 06:44:29,0.07,4.88,0.00,18.86,22.93,26.34,14.82,52.14,1020.03,2051.99,2051.57,2088.20,2356.89,600.18,606.68,34.01,0000 0000 0000 0000 000000
2016-03-22 06:49:30,0.05,4.88,0.00,18.90,22.95,26.36,14.77,52.06,1020.04,2051.97,2050.84,2087.75,2356.07,599.95,606.38,34.06,0000 0000 0000 0000 000000
2016-03-22 06:54:31,0.07,4.89,0.00,18.90,22.97,26.39,14.85,52.04,1020.12,2051.90,2050.04,2087.03,2355.35,599.74,606.18,34.11,0000 0000 0000 0000 000000
2016-03-22 06:59:32,0.01,4.89,0.00,18.83,22.99,26.39,14.87,52.02,1020.40,2051.37,2049.26,2086.42,2354.71,599.86,606.80,34.16,0000 0000 0000 0000 000000
2016-03-22 07:04:34,0.03,4.89,0.00,18.83,23.02,26.40,14.86,52.08,1020.50,2051.07,2048.55,2085.95,2353.97,600.25,607.02,34.21,0000 0000 0000 0000 000000
2016-03-22 07:09:35,0.09,4.89,0.00,18.89,23.03,26.45,14.84,51.99,1020.52,2051.03,2047.65,2085.14,2353.14,599.90,606.52,34.27,0000 0000 0000 0000 000000
2016-03-22 07:14:37,0.05,4.90,0.00,18.93,23.05,26.46,14.86,51.92,1020.53,2051.01,2047.01,2084.73,2352.49,599.88,606.55,34.32,0000 0000 0000 0000 000000
2016-03-22 07:19:38,0.07,4.90,0.00,18.96,23.07,26.47,14.88,52.07,1020.52,2051.00,2046.28,2084.01,2351.73,599.96,606.63,34.37,0000 0000 0000 0000 000000
2016-03-22 07:24:39,0.10,4.91,0.00,18.91,23.09,26.50,14.85,52.12,1020.53,2051.00,2045.40,2083.23,2350.90,599.87,606.61,34.42,0000 0000 0000 0000 000000
2016-03-22 07:29:41,0.07,4.91,0.00,18.91,23.11,26.52,14.85,52.17,1020.62,2050.99,2044.55,2082.71,2350.08,599.84,606.56,34.47,0000 0000 0000 0000 000000
2016-03-22 07:34:42,0.07,4.91,0.00,18.96,23.12,26.55,14.91,52.24,1020.91,2050.96,2043.65,2082.01,2349.28,599.89,606.77,34.52,0000 0000 0000 0000 000000
2016-03-22 07:39:44,0.08,4.92,0.00,18.97,23.14,26.56,14.82,52.10,1021.01,2050.96,2042.84,2081.22,2348.53,599.62,606.80,34.57,0000 0000 0000 0000 000000
2016-03-22 07:44:45,0.05,4.92,0.00,18.94,23.15,26.57,14.94,52.04,1021.05,2050.85,2041.96,2080.77,2347.81,600.04,606.98,34.62,0000 0000 0000 0000 000000
2016-03-22 07:49:46,0.06,4.93,0.00,18.99,23.17,26.59,14.86,51.96,1021.31,2050.68,2041.06,2080.04,2347.01,599.83,606.91,34.67,0000 0000 0000 0000 000000
2016-03-22 07:54:48,0.05,4.93,0.00,19.04,23.18,26.60,14.84,52.05,1021.49,2050.26,2040.18,2079.41,2346.21,599.84,606.89,34.72,0000 0000 0000 0000 000000
2016-03-22 07:59:49,0.05,4.93,0.00,19.08,23.19,26.62,14.91,51.88,1021.52,2050.09,2039.43,2078.89,2345.51,599.97,606.90,34.77,0000 0000 0000 0000 000000
2016-03-22 08:04:50,0.08,4.93,0.00,19.05,23.21,26.64,14.85,51.91,1021.67,2050.03,2038.58,2078.06,2344.78,600.34,607.38,34.82,0000 0000 0000 0000 000000
2016-03-22 08:09:51,0.09,4.94,0.00,19.07,23.22,26.65,14.76,51.84,1021.98,2050.00,2037.61,2077.41,2343.95,599.59,606.78,34.87,0000 0000 0000 0000 000000
2016-03-22 08:14:52,0.06,4.94,0.00,19.11,23.24,26.67,14.86,51.84,1021.99,2050.00,2036.73,2076.93,2343.10,600.00,607.17,34.92,0000 0000 0000 0000 000000
2016-03-22 08:19:54,0.08,4.95,0.00,19.16,23.25,26.70,14.86,51.77,1022.01,2050.00,2035.93,2076.14,2342.43,599.95,607.17,34.97,0000 0000 0000 0000 000000
2016-03-22 08:24:55,0.08,4.95,0.00,19.18,23.27,26.70,14.85,51.79,1022.35,2049.99,2035.06,2075.62,2341.75,599.72,606.94,35.02,0000 0000 0000 0000 000000
2016-03-22 08:29:57,0.06,4.95,0.00,19.21,23.27,26.74,14.93,51.73,1022.48,2049.98,2034.19,2075.00,2340.96,600.20,607.53,35.07,0000 0000 0000 0000 000000
2016-03-22 08:34:58,0.10,4.96,0.00,19.24,23.29,26.74,14.86,51.69,1022.50,2049.97,2033.41,2074.24,2340.11,600.01,607.21,35.12,0000 0000 0000 0000 000000
2016-03-22 08:39:59,0.07,4.96,0.00,19.29,23.31,26.76,14.86,51.69,1022.67,2049.94,2032.51,2073.76,2339.37,599.70,606.90,35.17,0000 0000 0000 0000 000000
2016-03-22 08:45:00,0.04,4.97,0.00,19.34,23.32,26.80,14.85,51.65,1022.76,2049.72,2031.71,2073.03,2338.64,600.00,607.15,35.23,0000 0000 0000 0000 000000
2016-03-22 08:50:02,0.04,4.97,0.00,19.39,23.34,26.82,14.89,51.57,1022.81,2049.42,2030.89,2072.38,2337.97,600.00,607.12,35.28,0000 0000 0000 0000 000000
2016-03-22 08:55:03,0.04,4.97,0.00,19.42,23.36,26.88,14.89,51.69,1022.76,2049.14,2030.04,2071.93,2337.14,599.73,607.04,35.33,0000 0000 0000 0000 000000
2016-03-22 09:00:05,0.09,4.97,0.00,19.34,23.37,26.89,14.89,51.63,1022.83,2049.07,2029.14,2071.11,2336.40,600.03,607.18,35.38,0000 0000 0000 0000 000000
2016-03-22 09:05:06,0.08,4.98,0.00,19.30,23.39,26.90,14.87,51.63,1022.86,2049.03,2028.28,2070.54,2335.71,599.99,607.28,35.43,0000 0000 0000 0000 000000
2016-03-22 09:10:07,0.06,4.98,0.00,19.31,23.41,26.92,14.87,51.61,1022.95,2049.02,2027.49,2069.95,2334.85,600.10,607.50,35.48,0000 0000 0000 0000 000000
2016-03-22 09:15:08,0.10,4.99,0.00,19.29,23.42,26.94,14.91,51.63,1022.96,2049.00,2026.52,2069.13,2334.04,600.01,607.40,35.53,0000 0000 0000 0000 000000
2016-03-22 09:20:10,0.07,4.99,0.00,19.28,23.42,26.94,14.88,51.63,1022.96,2049.00,2025.70,2068.75,2333.32,599.75,607.13,35.58,0000 0000 0000 0000 000000
2016-03-22 09:25:11,0.07,4.99,0.00,19.26,23.44,26.93,14.83,51.76,1022.96,2049.00,2024.83,2068.03,2332.65,599.88,607.27,35.63,0000 0000 0000 0000 000000
2016-03-22 09:30:13,0.07,5.00,0.00,19.25,23.45,26.96,14.91,51.72,1022.97,2049.00,2024.01,2067.46,2332.00,599.99,607.55,35.68,0000 0000 0000 0000 000000
2016-03-22 09:35:14,0.06,5.00,0.00,19.24,23.45,26.95,14.88,51.46,1023.11,2049.00,2023.20,2067.00,2331.23,599.81,607.33,35.73,0000 0000 0000 0000 000000
2016-03-22 09:40:15,0.09,5.01,0.00,19.21,23.45,26.95,14.97,51.50,1023.28,2048.98,2022.45,2066.27,2330.65,600.20,608.01,35.78,0000 0000 0000 0000 000000
2016-03-22 09:45:17,0.05,5.01,0.00,19.12,23.45,26.94,14.94,51.62,1023.31,2048.98,2021.61,2065.92,2329.97,600.18,608.00,35.83,0000 0000 0000 0000 000000
2016-03-22 09:50:18,0.08,5.01,0.00,19.09,23.45,26.92,15.00,51.65,1023.45,2048.97,2020.88,2065.12,2329.15,600.16,608.14,35.88,0000 0000 0000 0000 000000
2016-03-22 09:55:20,0.09,5.02,0.00,19.11,23.45,26.92,14.92,51.71,1023.45,2048.97,2019.89,2064.69,2328.42,600.08,608.13,35.93,0000 0000 0000 0000 000000
2016-03-22 10:00:21,0.05,5.02,0.00,19.11,23.45,26.90,14.91,51.55,1023.45,2048.95,2019.02,2064.02,2327.91,599.85,607.89,35.98,0000 0000 0000 0000 000000
2016-03-22 10:05:22,0.10,5.03,0.00,19.12,23.44,26.89,14.85,51.48,1023.48,2048.97,2018.17,2063.56,2327.10,599.76,607.94,36.03,0000 0000 0000 0000 000000
2016-03-22 10:10:23,0.07,5.03,0.00,19.10,23.42,26.89,14.91,51.55,1023.57,2048.97,2017.39,2063.01,2326.50,599.97,608.06,36.08,0000 0000 0000 0000 000000
2016-03-22 10:15:25,0.06,5.03,0.00,19.13,23.42,26.90,14.88,51.42,1023.85,2048.96,2016.78,2062.46,2325.97,599.95,608.15,36.14,0000 0000 0000 0000 000000
2016-03-22 10:20:26,0.06,5.04,0.00,19.12,23.42,26.89,14.95,51.46,1023.93,2048.95,2015.87,2061.97,2325.13,600.21,608.54,36.19,0000 0000 0000 0000 000000
2016-03-22 10:25:28,0.10,5.04,0.00,19.08,23.42,26.89,14.91,51.40,1023.94,2048.95,2014.92,2061.16,2324.37,600.03,608.35,36.24,0000 0000 0000 0000 000000
2016-03-22 10:30:29,0.05,5.04,0.00,19.00,23.41,26.87,14.92,51.41,1023.94,2048.96,2014.06,2060.87,2323.87,599.86,608.35,36.29,0000 0000 0000 0000 000000
2016-03-22 10:35:30,0.10,5.05,0.00,19.01,23.40,26.85,14.85,51.41,1023.94,2048.97,2013.17,2060.06,2323.05,599.38,607.97,36.34,0000 0000 0000 0000 000000
2016-03-22 10:40:32,0.08,5.05,0.00,19.00,23.40,26.85,14.89,51.48,1023.94,2048.95,2012.46,2059.75,2322.44,599.89,608.48,36.39,0000 0000 0000 0000 000000
2016-03-22 10:45:33,0.05,5.06,0.00,18.97,23.39,26.82,14.91,51.60,1023.93,2048.97,2011.79,2059.04,2321.87,599.54,608.11,36.44,0000 0000 0000 0000 000000
2016-03-22 10:50:34,0.10,5.06,0.00,18.89,23.38,26.82,14.91,51.57,1023.94,2048.96,2010.75,2058.51,2321.07,599.97,608.68,36.49,0000 0000 0000 0000 000000
2016-03-22 10:55:35,0.05,5.06,0.00,18.91,23.37,26.81,14.95,51.67,1023.94,2048.98,2009.95,2057.99,2320.43,599.89,608.71,36.54,0000 0000 0000 0000 000000
2016-03-22 11:00:37,0.08,5.07,0.00,18.93,23.37,26.81,14.94,51.63,1023.92,2048.98,2009.07,2057.26,2319.88,600.07,608.89,36.59,0000 0000 0000 0000 000000
2016-03-22 11:05:38,0.06,5.07,0.00,18.93,23.36,26.80,14.88,51.57,1023.93,2048.98,2008.19,2056.98,2319.08,599.73,608.41,36.64,0000 0000 0000 0000 000000
2016-03-22 11:10:39,0.10,5.08,0.00,18.91,23.35,26.78,14.89,51.54,1023.90,2048.98,2007.54,2056.24,2318.51,599.61,608.31,36.69,0000 0000 0000 0000 000000
2016-03-22 11:15:40,0.04,5.08,0.00,18.84,23.35,26.78,14.91,51.76,1023.77,2048.98,2006.71,2055.90,2317.89,600.03,608.83,36.74,0000 0000 0000 0000 000000
2016-03-22 11:20:42,0.10,5.08,0.00,18.86,23.33,26.75,15.01,51.87,1023.72,2048.99,2005.69,2055.09,2317.08,600.17,608.84,36.79,0000 0000 0000 0000 000000
2016-03-22 11:25:43,0.05,5.09,0.00,18.87,23.32,26.74,14.91,51.93,1023.64,2048.99,2004.84,2054.84,2316.51,600.30,608.83,36.84,0000 0000 0000 0000 000000
2016-03-22 11:30:45,0.07,5.09,0.00,18.86,23.30,26.73,14.94,51.70,1023.53,2048.99,2004.01,2054.07,2315.99,600.12,608.72,36.89,0000 0000 0000 0000 000000
2016-03-22 11:35:46,0.07,5.10,0.00,18.86,23.29,26.72,14.96,51.90,1023.47,2048.99,2003.16,2053.86,2315.24,599.98,608.48,36.94,0000 0000 0000 0000 000000
2016-03-22 11:40:47,0.08,5.10,0.00,18.85,23.27,26.70,14.97,52.05,1023.46,2048.99,2002.44,2053.09,2314.80,599.74,608.26,37.00,0000 0000 0000 0000 000000
2016-03-22 11:45:49,0.06,5.10,0.00,18.82,23.25,26.70,15.01,52.10,1023.45,2048.99,2001.60,2052.81,2314.04,599.90,608.52,37.05,0000 0000 0000 0000 000000
2016-03-22 11:50:50,0.08,5.11,0.00,18.79,23.24,26.69,14.99,52.02,1023.45,2049.00,2000.82,2052.05,2313.43,600.36,609.05,37.10,0000 0000 0000 0000 000000
2016-03-22 11:55:52,0.04,5.11,0.00,18.77,23.22,26.67,14.93,52.08,1023.46,2049.02,2000.00,2051.80,2312.96,600.00,608.73,37.15,0000 0000 0000 0000 000000
2016-03-22 12:00:53,0.10,5.12,0.00,18.75,23.20,26.66,14.93,52.01,1023.47,2049.06,1999.13,2051.05,2312.13,600.02,608.82,37.20,0000 0000 0000 0000 000000
2016-03-22 12:05:54,0.07,5.12,0.00,18.73,23.19,26.64,14.94,51.83,1023.49,2049.16,1998.40,2050.85,2311.73,600.04,608.94,37.25,0000 0000 0000 0000 000000
2016-03-22 12:10:56,0.09,5.12,0.00,18.69,23.17,26.61,14.92,51.79,1023.50,2049.28,1997.74,2050.08,2311.03,600.09,609.05,37.30,0000 0000 0000 0000 000000
2016-03-22 12:15:57,0.07,5.13,0.00,18.66,23.15,26.59,14.87,51.91,1023.46,2049.46,1997.02,2049.90,2310.53,600.05,608.97,37.35,0000 0000 0000 0000 000000
2016-03-22 12:20:58,0.09,5.13,0.00,18.64,23.13,26.56,14.98,52.03,1023.45,2049.60,1996.20,2049.13,2309.98,599.79,608.68,37.40,0000 0000 0000 0000 000000
2016-03-22 12:25:59,0.09,5.13,0.00,18.62,23.11,26.54,14.96,52.11,1023.42,2049.70,1995.40,2048.89,2309.18,600.08,609.05,37.45,0000 0000 0000 0000 000000
2016-03-22 12:31:00,0.09,5.14,0.00,18.59,23.09,26.53,14.96,51.98,1023.45,2049.90,1994.70,2048.08,2308.88,600.35,609.48,37.50,0000 0000 0000 0000 000000
2016-03-22 12:36:01,0.05,5.14,0.00,18.57,23.07,26.50,14.96,52.03,1023.45,2049.98,1993.95,2047.87,2308.11,600.17,609.39,37.55,0000 0000 0000 0000 000000
2016-03-22 12:41:03,0.09,5.15,0.00,18.55,23.05,26.47,14.93,51.92,1023.45,2049.98,1993.07,2047.08,2307.62,599.88,609.10,37.60,0000 0000 0000 0000 000000
2016-03-22 12:46:04,0.04,5.15,0.00,18.53,23.03,26.46,14.97,51.95,1023.45,2049.99,1992.20,2046.99,2307.00,599.73,608.98,37.65,0000 0000 0000 0000 000000
2016-03-22 12:51:05,0.09,5.15,0.00,18.50,23.00,26.44,14.98,51.82,1023.61,2049.99,1991.50,2046.60,2306.33,600.29,609.64,37.70,0000 0000 0000 0000 000000
2016-03-22 12:56:06,0.02,5.16,0.00,18.49,22.98,26.41,14.97,51.73,1023.77,2049.99,1990.99,2046.03,2305.96,599.88,609.31,37.75,0000 0000 0000 0000 000000